Regional Weather Roundup
Issued by NWS

Home | Current Version | Previous Version | Text Only | Print | Product List | Glossary Off
Versions: 1 2 3 4 5 6 7 8 9 10 11 12 13 14 15 16 17 18 19 20 21 22 23 24 25 26 27 28 29 30 31 32 33 34 35 36 37 38 39 40 41 42 43 44 45 46 47 48 49 50

000
ASUS43 KLSX 032310
RWRMO

WEATHER SUMMARY FOR MISSOURI
NATIONAL WEATHER SERVICE SPRINGFIELD MO
600 PM CDT MON AUG 03 2015

NOTE: "FAIR" INDICATES FEW OR NO CLOUDS BELOW 12,000 FEET WITH NO
       SIGNIFICANT WEATHER AND/OR OBSTRUCTIONS TO VISIBILITY.
       CURRENT SKY AND/OR WEATHER CONDITIONS ARE NOT AVAILABLE FOR
       CHILLICOTHE AND FARMINGTON.

MOZ001>031-035>038-043-044-053-054-040000-
...NORTHERN AND WESTERN MISSOURI...

CITY           SKY/WX    TMP DP  RH WIND       PRES   REMARKS
KANSAS CTY INT MOSUNNY   85  69  58 E9        29.91F
KANSAS C DTWN  SUNNY     88  71  57 E8        29.88F HX  94
LEE`S SUMMIT   MOSUNNY   87  72  60 E6        29.91F HX  93
ST JOSEPH      PTSUNNY   82  72  71 NE13      29.92R
CHILLICOTHE      N/A     82  66  58 CALM      29.94S
KIRKSVILLE     MOSUNNY   78  63  59 W5        29.94F

$$
MOZ066>068-077>081-088>096-101>105-040000-
...SOUTHWEST MISSOURI...

CITY           SKY/WX    TMP DP  RH WIND       PRES   REMARKS
SPRINGFIELD    SUNNY     90  65  43 SW8       29.94F HX  92
JOPLIN         MOSUNNY   93  63  36 SW8       29.93F HX  94

$$
MOZ032>034-039>042-045>050-055>058-069>072-040000-
...CENTRAL MISSOURI...

CITY           SKY/WX    TMP DP  RH WIND       PRES   REMARKS
COLUMBIA       SUNNY     86  70  58 SW8       29.92F HX  90
JEFFERSON CITY SUNNY     90  67  46 CALM      29.89F HX  93
ROLLA          SUNNY     87  68  52 W5        29.93F HX  90
SEDALIA        SUNNY     87  70  56 SE7       29.92F HX  92
WHITEMAN AFB   MOSUNNY   87  71  59 SE6       29.89F HX  92
OSAGE BEACH    MOSUNNY   88  72  58 E3        29.92F HX  94

$$
MOZ051-052-059>065-040000-
...EAST CENTRAL MISSOURI...

CITY           SKY/WX    TMP DP  RH WIND       PRES   REMARKS
ST LOUIS INTL  PTSUNNY   89  68  49 N9        29.90F HX  93
SPIRIT OF STL  MOSUNNY   89  67  47 NW6       29.88F HX  92
ST CHARLES     PTSUNNY   88  68  51 NW6       29.88F HX  91

$$
MOZ072>076-082>087-097>100-106>115-040000-
...SOUTH CENTRAL AND SOUTHEAST MISSOURI...

CITY           SKY/WX    TMP DP  RH WIND       PRES   REMARKS
CAPE GIRARDEAU MOSUNNY   91  71  51 W7        29.89S HX  97
FARMINGTON     MOSUNNY   88  70  55 W6        29.97S HX  92
POPLAR BLUFF   SUNNY     92  69  47 W5        29.88F HX  97
WEST PLAINS    MOSUNNY   89  66  46 VRB3      29.96F HX  91

$$


USA.gov is the U.S. government's official web portal to all federal, state and local government web resources and services.